TimeCDT,TemperatureF,Dew PointF,Humidity,Sea Level PressureIn,VisibilityMPH,Wind Direction,Wind SpeedMPH,Gust SpeedMPH,PrecipitationIn,Events,Conditions,WindDirDegrees,DateUTC
12:35 AM,46.4,35.6,66,30.05,10.0,Calm,Calm,-,N/A,,Clear,0,2013-03-21 05:35:00
1:15 AM,48.2,37.4,66,30.06,10.0,Calm,Calm,-,N/A,,Clear,0,2013-03-21 06:15:00
1:35 AM,46.4,37.4,71,30.05,10.0,Calm,Calm,-,N/A,,Clear,0,2013-03-21 06:35:00
1:55 AM,46.4,35.6,66,30.05,10.0,Calm,Calm,-,N/A,,Clear,0,2013-03-21 06:55:00
2:15 AM,46.4,35.6,66,30.05,10.0,Calm,Calm,-,N/A,,Clear,0,2013-03-21 07:15:00
2:35 AM,46.4,39.2,76,30.05,10.0,Calm,Calm,-,N/A,,Clear,0,2013-03-21 07:35:00
2:55 AM,46.4,33.8,62,30.04,10.0,Calm,Calm,-,N/A,,Clear,0,2013-03-21 07:55:00
3:15 AM,46.4,35.6,66,30.03,10.0,Calm,Calm,-,N/A,,Clear,0,2013-03-21 08:15:00
3:35 AM,46.4,33.8,62,30.02,10.0,Calm,Calm,-,N/A,,Clear,0,2013-03-21 08:35:00
3:55 AM,48.2,32.0,54,30.01,10.0,SE,3.5,-,N/A,,Clear,130,2013-03-21 08:55:00
4:15 AM,48.2,32.0,54,30.00,10.0,ESE,4.6,-,N/A,,Clear,120,2013-03-21 09:15:00
4:35 AM,50.0,32.0,50,29.99,10.0,ESE,4.6,-,N/A,,Clear,120,2013-03-21 09:35:00
4:55 AM,50.0,32.0,50,29.98,8.0,ESE,5.8,-,N/A,,Clear,110,2013-03-21 09:55:00
5:15 AM,50.0,32.0,50,29.98,8.0,ESE,4.6,-,N/A,,Clear,110,2013-03-21 10:15:00
5:35 AM,50.0,32.0,50,29.98,8.0,ESE,5.8,-,N/A,,Clear,120,2013-03-21 10:35:00
5:55 AM,50.0,32.0,50,29.98,8.0,ESE,5.8,-,N/A,,Clear,120,2013-03-21 10:55:00
6:15 AM,50.0,30.2,47,29.98,10.0,ESE,5.8,-,N/A,,Partly Cloudy,120,2013-03-21 11:15:00
6:35 AM,48.2,32.0,54,29.97,10.0,ESE,5.8,-,N/A,,Scattered Clouds,110,2013-03-21 11:35:00
6:55 AM,48.2,32.0,54,29.98,10.0,ESE,5.8,-,N/A,,Mostly Cloudy,110,2013-03-21 11:55:00
7:15 AM,48.2,32.0,54,29.99,10.0,ESE,5.8,-,N/A,,Scattered Clouds,120,2013-03-21 12:15:00
7:55 AM,48.2,32.0,54,29.98,10.0,ESE,5.8,-,N/A,,Scattered Clouds,120,2013-03-21 12:55:00
8:15 AM,48.2,32.0,54,29.98,10.0,ESE,5.8,-,N/A,,Scattered Clouds,110,2013-03-21 13:15:00
8:35 AM,50.0,32.0,50,29.98,10.0,ESE,8.1,-,N/A,,Scattered Clouds,120,2013-03-21 13:35:00
8:55 AM,50.0,32.0,50,29.98,10.0,ESE,6.9,-,N/A,,Clear,120,2013-03-21 13:55:00
9:15 AM,51.8,32.0,47,29.97,10.0,SE,6.9,-,N/A,,Clear,130,2013-03-21 14:15:00
9:35 AM,50.0,32.0,50,29.97,10.0,SE,10.4,16.1,N/A,,Partly Cloudy,130,2013-03-21 14:35:00
9:55 AM,48.2,35.6,62,29.98,4.0,SE,5.8,-,N/A,,Light Drizzle,130,2013-03-21 14:55:00
10:15 AM,46.4,39.2,76,29.96,7.0,ESE,5.8,-,N/A,,Overcast,110,2013-03-21 15:15:00
10:35 AM,48.2,39.2,71,29.96,10.0,ESE,4.6,-,N/A,,Overcast,110,2013-03-21 15:35:00
10:55 AM,48.2,39.2,71,29.95,10.0,ESE,4.6,-,N/A,,Overcast,120,2013-03-21 15:55:00
11:35 AM,51.8,37.4,58,29.92,10.0,SE,6.9,-,N/A,,Overcast,130,2013-03-21 16:35:00
11:55 AM,53.6,37.4,54,29.90,10.0,SE,5.8,-,N/A,,Mostly Cloudy,130,2013-03-21 16:55:00
12:15 PM,53.6,37.4,54,29.89,10.0,SE,10.4,17.3,N/A,,Scattered Clouds,130,2013-03-21 17:15:00
12:35 PM,55.4,37.4,51,29.87,10.0,ESE,6.9,-,N/A,,Partly Cloudy,120,2013-03-21 17:35:00
12:55 PM,57.2,39.2,51,29.87,10.0,SE,9.2,-,N/A,,Mostly Cloudy,130,2013-03-21 17:55:00
1:15 PM,59.0,39.2,48,29.85,10.0,ESE,8.1,-,N/A,,Mostly Cloudy,120,2013-03-21 18:15:00
1:35 PM,60.8,37.4,42,29.83,10.0,SE,9.2,-,N/A,,Mostly Cloudy,140,2013-03-21 18:35:00
1:55 PM,62.6,33.8,34,29.81,10.0,SSE,6.9,21.9,N/A,,Mostly Cloudy,150,2013-03-21 18:55:00
2:15 PM,64.4,35.6,34,29.79,10.0,SE,8.1,17.3,N/A,,Mostly Cloudy,140,2013-03-21 19:15:00
2:35 PM,64.4,35.6,34,29.77,10.0,SE,9.2,-,N/A,,Mostly Cloudy,140,2013-03-21 19:35:00
2:55 PM,64.4,35.6,34,29.76,10.0,SSE,13.8,21.9,N/A,,Mostly Cloudy,150,2013-03-21 19:55:00
3:15 PM,64.4,35.6,34,29.74,10.0,SE,8.1,20.7,N/A,,Mostly Cloudy,140,2013-03-21 20:15:00
3:35 PM,64.4,35.6,34,29.74,10.0,SSE,9.2,-,N/A,,Overcast,150,2013-03-21 20:35:00
3:55 PM,64.4,35.6,34,29.73,10.0,SE,4.6,-,N/A,,Overcast,130,2013-03-21 20:55:00
4:15 PM,64.4,35.6,34,29.71,10.0,SE,6.9,-,N/A,,Overcast,140,2013-03-21 21:15:00
4:35 PM,64.4,37.4,37,29.70,10.0,SE,4.6,-,N/A,,Overcast,130,2013-03-21 21:35:00
4:55 PM,64.4,37.4,37,29.70,10.0,SE,4.6,-,N/A,,Overcast,130,2013-03-21 21:55:00
5:15 PM,64.4,39.2,40,29.69,10.0,ESE,5.8,-,N/A,,Overcast,110,2013-03-21 22:15:00
5:35 PM,64.4,39.2,40,29.68,10.0,SE,3.5,-,N/A,,Overcast,130,2013-03-21 22:35:00
5:55 PM,64.4,41.0,42,29.65,10.0,SE,8.1,-,N/A,,Overcast,130,2013-03-21 22:55:00
6:15 PM,64.4,42.8,45,29.67,10.0,SE,3.5,-,N/A,,Overcast,130,2013-03-21 23:15:00
6:35 PM,64.4,42.8,45,29.66,10.0,ESE,5.8,-,N/A,,Overcast,120,2013-03-21 23:35:00
6:55 PM,62.6,42.8,48,29.66,10.0,Calm,Calm,-,N/A,,Overcast,0,2013-03-21 23:55:00
7:15 PM,62.6,41.0,45,29.68,10.0,ENE,3.5,-,N/A,,Overcast,70,2013-03-22 00:15:00
7:35 PM,60.8,39.2,45,29.68,10.0,ESE,4.6,-,N/A,,Overcast,110,2013-03-22 00:35:00
7:55 PM,60.8,39.2,45,29.69,10.0,Calm,Calm,-,N/A,,Overcast,0,2013-03-22 00:55:00
8:15 PM,60.8,39.2,45,29.70,10.0,ENE,5.8,-,N/A,,Overcast,70,2013-03-22 01:15:00
8:35 PM,59.0,39.2,48,29.69,10.0,ESE,6.9,-,N/A,,Overcast,120,2013-03-22 01:35:00
8:55 PM,59.0,39.2,48,29.68,10.0,SE,5.8,-,N/A,,Mostly Cloudy,130,2013-03-22 01:55:00
9:15 PM,57.2,41.0,55,29.68,10.0,ESE,5.8,-,N/A,,Scattered Clouds,120,2013-03-22 02:15:00
9:35 PM,59.0,41.0,51,29.67,10.0,SE,6.9,-,N/A,,Clear,130,2013-03-22 02:35:00
9:55 PM,59.0,42.8,55,29.68,10.0,ESE,5.8,-,N/A,,Mostly Cloudy,120,2013-03-22 02:55:00
10:15 PM,60.8,44.6,55,29.67,10.0,SE,6.9,-,N/A,,Mostly Cloudy,130,2013-03-22 03:15:00
10:35 PM,60.8,46.4,59,29.67,10.0,SE,4.6,-,N/A,,Overcast,130,2013-03-22 03:35:00
10:55 PM,60.8,46.4,59,29.67,10.0,SE,3.5,-,N/A,,Overcast,130,2013-03-22 03:55:00
11:15 PM,60.8,48.2,63,29.68,10.0,SE,3.5,-,N/A,,Overcast,130,2013-03-22 04:15:00
11:35 PM,60.8,48.2,63,29.67,10.0,ESE,3.5,-,N/A,,Overcast,120,2013-03-22 04:35:00
11:55 PM,62.6,51.8,68,29.67,10.0,SE,3.5,-,N/A,,Overcast,140,2013-03-22 04:55:00